Location: Ostrava
(49.8330°N, 18.2830°E)
Time: 17:01:47
(UTC+01:00)

Iridium 39 - Visible Passes

Search period start: 24 March 2017 00:00
Search period end: 03 April 2017 01:00
Orbit: 726 x 750 km, 86.4° (Epoch: 22 March)

Date Brightness Start Highest point End Pass type
(mag) Time Alt. Az. Time Alt. Az. Time Alt. Az.
24 Mar 6.3 02:38:34 10° N 02:43:36 60° E 02:44:43 48° SE visible
24 Mar 7.2 04:19:23 10° NNW 04:23:02 20° WNW 04:24:20 18° W visible
25 Mar 7.6 01:53:50 10° NNE 01:58:11 28° ENE 01:59:25 25° E visible
25 Mar 6.3 03:33:30 10° NNW 03:38:15 42° W 03:39:03 39° WSW visible
26 Mar 8.5 01:09:53 10° NE 01:12:31 14° ENE 01:14:09 12° E visible
26 Mar 5.8 03:48:08 10° N 03:53:13 89° ENE 03:53:47 71° S visible
26 Mar 7.6 05:29:53 10° NW 05:32:20 14° WNW 05:33:24 13° W visible
27 Mar 6.9 03:03:09 10° N 03:07:57 41° E 03:08:33 40° E visible
27 Mar 6.8 04:43:24 10° NNW 04:47:41 28° W 04:48:10 28° W visible
28 Mar 8.0 02:18:41 10° NNE 02:22:25 20° ENE 02:23:19 19° E visible
28 Mar 5.9 03:57:48 10° N 04:02:46 61° W 04:02:57 60° W visible
29 Mar 6.2 03:12:37 10° N 03:17:38 63° E 03:17:45 62° E visible
29 Mar 7.3 04:53:30 10° NNW 04:57:01 19° WNW 04:57:23 19° W visible
30 Mar 7.5 02:27:50 10° NNE 02:32:14 29° ENE 02:32:35 29° E visible
30 Mar 6.4 04:07:34 10° NNW 04:12:12 40° W 04:12:12 40° W visible
31 Mar 8.4 01:43:49 10° NNE 01:46:34 15° ENE 01:47:24 14° ENE visible
31 Mar 5.8 03:22:11 10° N 03:27:03 83° NNW 03:27:03 83° NNW visible
31 Mar 7.7 05:04:05 10° NW 05:06:19 13° WNW 05:06:41 13° WNW visible
01 Apr 6.8 02:37:10 10° N 02:41:53 43° ENE 02:41:53 43° ENE visible
01 Apr 7.0 04:17:29 10° NNW 04:21:31 27° WNW 04:21:31 27° WNW visible
02 Apr 7.9 01:52:39 10° NNE 01:56:28 21° ENE 01:56:45 21° ENE visible
02 Apr 6.1 03:31:51 10° N 03:36:23 56° WNW 03:36:23 56° WNW visible
